Date String (YYYY-MM-DD hh:mm:ss) UTC,Instrument flags,Ambient pressure (hPa),Sample flow (lpm),Bypass flow (lpm),Sample temperature (°C),Ambient temperature (°C),ASC tube jacket temperature (°C),LED temperature (°C),Box temperature (°C),Sample RH (%),Span deviation,Mass concentration (μg/m³),Mass concentration (μg/m³),Mass concentration (μg/m³)
DateTimeUTC,F1_M11,P_M11,Q1_M11,Q2_M11,T1_M11,T2_M11,T3_M11,T4_M11,T5_M11,U1_M11,ZSPAN_M11,X2_M11,X0_M11,X1_M11
2023-05-28 17:00:00,,0828.9,5.00,0.00,29.5,28.1,00.0,37.8,31.2,20.8,0000.0,0004.20,0009.99,0003.17
2023-05-28 17:01:00,,0828.9,5.00,0.00,29.6,28.1,00.0,37.8,31.2,21.3,0000.0,0004.14,0009.75,0003.18
2023-05-28 17:02:00,,0828.9,5.00,0.00,29.6,28.0,00.0,37.8,31.3,21.2,0000.0,0004.09,0009.61,0003.18
2023-05-28 17:03:00,,0828.9,4.98,0.00,29.6,26.7,00.0,37.8,31.1,21.0,0000.0,0004.16,0009.28,0003.19
2023-05-28 17:04:00,,0828.9,5.01,0.00,29.5,25.3,00.0,37.7,30.9,21.1,0000.0,0004.19,0009.59,0003.20
2023-05-28 17:05:00,,0828.9,5.01,0.00,29.4,25.3,00.0,37.6,30.8,21.0,0000.0,0004.16,0009.63,0003.20
2023-05-28 17:06:00,,0829.0,5.01,0.00,29.3,25.5,00.0,37.6,30.7,21.1,0000.0,0004.20,0009.75,0003.20
2023-05-28 17:07:00,,0828.9,5.00,0.00,29.3,25.9,00.0,37.6,30.7,21.6,0000.0,0004.26,0009.95,0003.21
2023-05-28 17:08:00,,0828.9,5.00,0.00,29.3,26.2,00.0,37.6,30.7,22.1,0000.0,0004.26,0010.09,0003.21
2023-05-28 17:09:00,,0828.9,4.99,0.00,29.2,26.6,00.0,37.6,30.8,22.0,0000.0,0004.30,0010.13,0003.22
2023-05-28 17:10:00,,0828.8,4.99,0.00,29.2,26.8,00.0,37.6,30.8,22.9,0000.0,0004.34,0010.08,0003.22
2023-05-28 17:11:00,,0828.8,5.01,0.00,29.2,27.1,00.0,37.6,30.9,22.3,0000.0,0004.32,0010.02,0003.22
2023-05-28 17:12:00,,0828.8,5.00,0.00,29.3,27.3,00.0,37.6,30.9,21.7,0000.0,0004.30,0009.97,0003.22
2023-05-28 17:13:00,,0828.8,5.01,0.00,29.3,27.4,00.0,37.6,30.9,21.8,0000.0,0004.36,0010.17,0003.23
2023-05-28 17:14:00,,0828.8,5.00,0.00,29.3,27.6,00.0,37.6,31.0,21.2,0000.0,0004.30,0009.95,0003.21
2023-05-28 17:15:00,,0828.8,5.00,0.00,29.3,27.7,00.0,37.6,31.0,21.3,0000.0,0004.25,0009.90,0003.20
2023-05-28 17:16:00,,0828.8,5.00,0.00,29.3,27.8,00.0,37.6,31.0,21.3,0000.0,0004.28,0009.86,0003.20
2023-05-28 17:17:00,,0828.9,4.99,0.00,29.3,27.9,00.0,37.6,31.0,21.7,0000.0,0004.26,0009.88,0003.20
2023-05-28 17:18:00,,0828.8,4.99,0.00,29.4,27.9,00.0,37.7,31.1,22.2,0000.0,0004.18,0009.65,0003.20
2023-05-28 17:19:00,,0828.8,5.02,0.00,29.4,28.0,00.0,37.7,31.1,22.9,0000.0,0004.16,0009.67,0003.20
2023-05-28 17:20:00,,0828.8,5.00,0.00,29.4,28.1,00.0,37.7,31.1,23.1,0000.0,0004.17,0009.39,0003.20
2023-05-28 17:21:00,,0828.9,5.00,0.00,29.4,28.1,00.0,37.7,31.2,22.6,0000.0,0004.18,0009.30,0003.22
2023-05-28 17:22:00,,0828.8,4.98,0.00,29.5,28.2,00.0,37.7,31.2,22.3,0000.0,0004.16,0009.20,0003.23
2023-05-28 17:23:00,,0828.8,4.99,0.00,29.5,27.9,00.0,37.7,31.2,22.1,0000.0,0004.18,0009.21,0003.24
2023-05-28 17:24:00,,0828.8,5.00,0.00,29.5,26.3,00.0,37.6,31.0,22.5,0000.0,0004.17,0009.36,0003.24
2023-05-28 17:25:00,,0828.8,5.00,0.00,29.4,25.0,00.0,37.5,30.7,23.1,0000.0,0004.19,0009.59,0003.25
2023-05-28 17:26:00,,0828.8,5.01,0.00,29.3,25.1,00.0,37.5,30.6,23.3,0000.0,0004.23,0009.49,0003.27
2023-05-28 17:27:00,,0828.7,5.01,0.00,29.2,25.3,00.0,37.5,30.5,23.6,0000.0,0004.22,0009.48,0003.28
2023-05-28 17:28:00,,0828.7,5.00,0.00,29.2,25.7,00.0,37.5,30.6,24.0,0000.0,0004.24,0009.74,0003.28
2023-05-28 17:29:00,,0828.7,5.00,0.00,29.1,26.1,00.0,37.5,30.6,24.2,0000.0,0004.24,0009.74,0003.29
2023-05-28 17:30:00,,0828.7,4.99,0.00,29.1,26.4,00.0,37.5,30.7,24.7,0000.0,0004.26,0009.53,0003.30
2023-05-28 17:31:00,,0828.8,4.99,0.00,29.1,26.7,00.0,37.5,30.7,25.2,0000.0,0004.27,0009.33,0003.31
2023-05-28 17:32:00,,0828.7,5.00,0.00,29.1,27.0,00.0,37.5,30.8,25.2,0000.0,0004.25,0009.31,0003.31
2023-05-28 17:33:00,,0828.7,5.00,0.00,29.1,27.2,00.0,37.5,30.8,25.6,0000.0,0004.26,0009.28,0003.31
2023-05-28 17:34:00,,0828.7,5.00,0.00,29.2,27.4,00.0,37.5,30.8,25.9,0000.0,0004.28,0009.37,0003.32
2023-05-28 17:35:00,,0828.7,5.00,0.00,29.2,27.5,00.0,37.5,30.9,26.0,0000.0,0004.28,0009.17,0003.33
2023-05-28 17:36:00,,0828.7,5.00,0.00,29.2,27.6,00.0,37.5,30.9,25.6,0000.0,0004.27,0009.02,0003.34
2023-05-28 17:37:00,,0828.7,5.00,0.00,29.2,27.7,00.0,37.5,30.9,25.3,0000.0,0004.31,0008.89,0003.36
2023-05-28 17:38:00,,0828.7,5.00,0.00,29.3,27.8,00.0,37.5,31.0,25.7,0000.0,0004.31,0009.47,0003.36
2023-05-28 17:39:00,,0828.7,4.99,0.00,29.3,27.9,00.0,37.6,31.0,26.3,0000.0,0004.30,0009.20,0003.38
2023-05-28 17:40:00,,0828.7,5.00,0.00,29.3,28.0,00.0,37.6,31.0,25.3,0000.0,0004.32,0009.20,0003.38
2023-05-28 17:41:00,,0828.6,5.00,0.00,29.3,28.0,00.0,37.6,31.1,24.7,0000.0,0004.31,0009.12,0003.38
2023-05-28 17:42:00,,0828.6,5.00,0.00,29.4,28.1,00.0,37.6,31.1,24.9,0000.0,0004.28,0009.04,0003.38
2023-05-28 17:43:00,,0828.6,5.00,0.00,29.4,28.1,00.0,37.6,31.1,24.6,0000.0,0004.26,0009.01,0003.37
2023-05-28 17:44:00,,0828.6,4.99,0.00,29.4,27.5,00.0,37.6,31.1,24.5,0000.0,0004.25,0008.99,0003.38
2023-05-28 17:45:00,,0828.6,5.01,0.00,29.4,26.1,00.0,37.5,30.9,24.1,0000.0,0004.23,0008.87,0003.37
2023-05-28 17:46:00,,0828.6,5.01,0.00,29.3,25.8,00.0,37.5,30.8,24.6,0000.0,0004.22,0008.89,0003.37
2023-05-28 17:47:00,,0828.6,5.00,0.00,29.3,25.9,00.0,37.5,30.7,26.1,0000.0,0004.21,0008.82,0003.36
2023-05-28 17:48:00,,0828.6,4.99,0.00,29.2,26.2,00.0,37.5,30.7,26.0,0000.0,0004.15,0009.43,0003.35
2023-05-28 17:49:00,,0828.6,5.00,0.00,29.2,26.5,00.0,37.5,30.8,24.7,0000.0,0004.18,0009.31,0003.36
2023-05-28 17:50:00,,0828.6,5.00,0.00,29.2,26.8,00.0,37.5,30.8,24.9,0000.0,0004.19,0009.72,0003.36
2023-05-28 17:51:00,,0828.6,4.99,0.00,29.2,27.0,00.0,37.5,30.9,25.8,0000.0,0004.19,0009.80,0003.37
2023-05-28 17:52:00,,0828.6,5.01,0.00,29.2,27.2,00.0,37.5,30.9,27.2,0000.0,0004.21,0010.20,0003.38
2023-05-28 17:53:00,,0828.6,4.99,0.00,29.2,27.4,00.0,37.5,30.9,26.0,0000.0,0004.24,0010.58,0003.39
2023-05-28 17:54:00,,0828.6,4.99,0.00,29.3,27.6,00.0,37.5,30.9,26.7,0000.0,0004.30,0010.69,0003.41
2023-05-28 17:55:00,,0828.6,5.00,0.00,29.3,27.7,00.0,37.6,31.0,25.8,0000.0,0004.36,0010.82,0003.43
2023-05-28 17:56:00,,0828.6,5.01,0.00,29.3,27.8,00.0,37.6,31.0,25.9,0000.0,0004.37,0010.85,0003.44
2023-05-28 17:57:00,,0828.6,5.01,0.00,29.3,27.9,00.0,37.6,31.0,26.1,0000.0,0004.40,0010.90,0003.44
2023-05-28 17:58:00,,0828.6,5.00,0.00,29.3,27.9,00.0,37.6,31.1,26.1,0000.0,0004.43,0011.37,0003.45
2023-05-28 17:59:00,,0828.6,5.00,0.00,29.4,28.0,00.0,37.6,31.1,24.4,0000.0,0004.43,0010.76,0003.44
